| time (UTC) | temp F | wind direction | speed MPH | gust MPH | rain 1hr in | rain 24hr in | rain mn in | humidity % | barometer mb |
| 20260510234551 | 55 | 58 | 2.0 | 4.0 | 0.00 | 0.08 | 0.00 | 42 | 1019.4 |
| 20260510234051 | 55 | 326 | 1.0 | 5.0 | 0.00 | 0.08 | 0.00 | 43 | 1019.2 |
| 20260510233551 | 54 | 71 | 1.0 | 5.0 | 0.00 | 0.08 | 0.00 | 42 | 1019.3 |
| 20260510233054 | 54 | 1 | 1.0 | 6.0 | 0.00 | 0.08 | 0.00 | 42 | 1019.5 |
| 20260510232551 | 54 | 356 | 3.0 | 7.0 | 0.00 | 0.08 | 0.00 | 42 | 1019.4 |
| 20260510232050 | 54 | 30 | 1.0 | 7.0 | 0.00 | 0.08 | 0.00 | 42 | 1019.1 |
| 20260510231602 | 55 | 48 | 1.0 | 7.0 | 0.00 | 0.08 | 0.00 | 42 | 1019.1 |
| 20260510231049 | 55 | 344 | 4.0 | 7.0 | 0.00 | 0.08 | 0.00 | 42 | 1019.2 |
| 20260510230548 | 55 | 63 | 2.0 | 7.0 | 0.00 | 0.08 | 0.00 | 41 | 1019.2 |
| 20260510230053 | 55 | 44 | 4.0 | 11.0 | 0.00 | 0.08 | 0.00 | 40 | 1019.2 |
| 20260510225548 | 55 | 342 | 4.0 | 11.0 | 0.00 | 0.28 | 0.00 | 40 | 1019.2 |
| 20260510225048 | 55 | 356 | 4.0 | 9.0 | 0.00 | 0.28 | 0.00 | 41 | 1019.1 |
| 20260510224648 | 55 | 27 | 2.0 | 7.0 | 0.00 | 0.28 | 0.00 | 41 | 1019.1 |
| 20260510224045 | 55 | 30 | 1.0 | 9.0 | 0.00 | 0.28 | 0.00 | 42 | 1019.1 |
| 20260510223545 | 55 | 1 | 4.0 | 9.0 | 0.00 | 0.28 | 0.00 | 40 | 1019.1 |
| 20260510223045 | 55 | 16 | 2.0 | 9.0 | 0.00 | 0.28 | 0.00 | 40 | 1018.9 |
| 20260510222544 | 55 | 1 | 6.0 | 8.0 | 0.00 | 0.28 | 0.00 | 41 | 1018.8 |
| 20260510222044 | 55 | 23 | 1.0 | 7.0 | 0.00 | 0.28 | 0.00 | 42 | 1018.9 |
| 20260510221545 | 55 | 1 | 2.0 | 8.0 | 0.00 | 0.28 | 0.00 | 42 | 1018.8 |
| 20260510221044 | 55 | 41 | 2.0 | 15.0 | 0.00 | 0.28 | 0.00 | 42 | 1018.8 |
| 20260510220543 | 55 | 316 | 5.0 | 15.0 | 0.00 | 0.28 | 0.00 | 42 | 1018.9 |
| 20260510220043 | 54 | 339 | 4.0 | 15.0 | 0.00 | 0.28 | 0.00 | 40 | 1018.8 |
| 20260510215541 | 54 | 13 | 5.0 | 15.0 | 0.00 | 0.28 | 0.00 | 41 | 1018.7 |
| 20260510215039 | 54 | 41 | 5.0 | 11.0 | 0.00 | 0.28 | 0.00 | 41 | 1018.6 |
| 20260510214540 | 54 | 34 | 4.0 | 13.0 | 0.00 | 0.28 | 0.00 | 41 | 1018.5 |
| 20260510214042 | 55 | 347 | 7.0 | 13.0 | 0.00 | 0.28 | 0.00 | 42 | 1018.5 |
| 20260510213542 | 55 | 90 | 3.0 | 10.0 | 0.00 | 0.28 | 0.00 | 41 | 1018.4 |
| 20260510213040 | 55 | 1 | 4.0 | 13.0 | 0.00 | 0.28 | 0.00 | 40 | 1018.4 |
| 20260510212539 | 55 | 323 | 6.0 | 13.0 | 0.00 | 0.28 | 0.00 | 40 | 1018.4 |
| 20260510212039 | 56 | 20 | 6.0 | 12.0 | 0.00 | 0.28 | 0.00 | 40 | 1018.2 |
| 20260510211539 | 56 | 334 | 4.0 | 11.0 | 0.00 | 0.28 | 0.00 | 41 | 1018.3 |
| 20260510211042 | 56 | 348 | 4.0 | 8.0 | 0.00 | 0.28 | 0.00 | 41 | 1018.3 |
| 20260510210538 | 55 | 331 | 5.0 | 13.0 | 0.00 | 0.28 | 0.00 | 41 | 1018.3 |
| 20260510210039 | 55 | 3 | 4.0 | 13.0 | 0.00 | 0.28 | 0.00 | 41 | 1018.3 |
| 20260510205540 | 55 | 27 | 1.0 | 10.0 | 0.00 | 0.28 | 0.00 | 40 | 1018.3 |
| 20260510205037 | 55 | 1 | 6.0 | 16.0 | 0.00 | 0.28 | 0.00 | 39 | 1018.3 |
| 20260510204537 | 55 | 58 | 5.0 | 16.0 | 0.00 | 0.28 | 0.00 | 37 | 1018.4 |
| 20260510204038 | 56 | 15 | 6.0 | 14.0 | 0.00 | 0.28 | 0.00 | 39 | 1018.4 |
| 20260510203537 | 56 | 359 | 7.0 | 14.0 | 0.00 | 0.28 | 0.00 | 38 | 1018.3 |
| 20260510203037 | 56 | 351 | 6.0 | 14.0 | 0.00 | 0.28 | 0.00 | 39 | 1018.3 |
| 20260510202539 | 56 | 23 | 7.0 | 14.0 | 0.00 | 0.28 | 0.00 | 37 | 1018.3 |
| 20260510202036 | 56 | 34 | 5.0 | 15.0 | 0.00 | 0.28 | 0.00 | 41 | 1018.3 |
| 20260510201536 | 56 | 283 | 8.0 | 15.0 | 0.00 | 0.28 | 0.00 | 40 | 1018.5 |
| 20260510201036 | 56 | 1 | 6.0 | 17.0 | 0.00 | 0.28 | 0.00 | 39 | 1018.6 |
| 20260510200536 | 56 | 346 | 10.0 | 17.0 | 0.00 | 0.28 | 0.00 | 36 | 1018.5 |
| 20260510200036 | 56 | 8 | 7.0 | 16.0 | 0.00 | 0.28 | 0.00 | 41 | 1018.4 |
| 20260510195537 | 56 | 341 | 8.0 | 14.0 | 0.00 | 0.28 | 0.00 | 40 | 1018.5 |
| 20260510195034 | 55 | 25 | 8.0 | 19.0 | 0.00 | 0.28 | 0.00 | 39 | 1018.4 |
| 20260510194545 | 56 | 321 | 8.0 | 19.0 | 0.00 | 0.28 | 0.00 | 40 | 1018.3 |
| 20260510194034 | 56 | 267 | 7.0 | 16.0 | 0.00 | 0.28 | 0.00 | 39 | 1018.3 |
| 20260510193536 | 56 | 325 | 9.0 | 17.0 | 0.00 | 0.28 | 0.00 | 40 | 1018.3 |
| 20260510193033 | 56 | 29 | 9.0 | 17.0 | 0.00 | 0.28 | 0.00 | 39 | 1018.3 |
| 20260510192533 | 56 | 356 | 10.0 | 17.0 | 0.00 | 0.28 | 0.00 | 39 | 1018.3 |
| 20260510192033 | 56 | 325 | 10.0 | 17.0 | 0.00 | 0.28 | 0.00 | 41 | 1018.4 |
| 20260510191533 | 56 | 345 | 10.0 | 17.0 | 0.00 | 0.28 | 0.00 | 39 | 1018.5 |
| 20260510191034 | 56 | 32 | 4.0 | 16.0 | 0.00 | 0.28 | 0.00 | 39 | 1018.4 |
| 20260510190536 | 56 | 327 | 7.0 | 19.0 | 0.00 | 0.28 | 0.00 | 41 | 1018.4 |
| 20260510190031 | 56 | 356 | 11.0 | 19.0 | 0.00 | 0.28 | 0.00 | 38 | 1018.2 |
| 20260510185530 | 56 | 356 | 8.0 | 18.0 | 0.00 | 0.28 | 0.00 | 37 | 1018.1 |
| 20260510185030 | 57 | 346 | 9.0 | 21.0 | 0.00 | 0.28 | 0.00 | 38 | 1017.9 |
| 20260510184528 | 57 | 276 | 5.0 | 21.0 | 0.00 | 0.28 | 0.00 | 38 | 1017.9 |
| 20260510184030 | 57 | 335 | 10.0 | 20.0 | 0.00 | 0.28 | 0.00 | 34 | 1017.9 |
| 20260510183529 | 58 | 326 | 8.0 | 20.0 | 0.00 | 0.28 | 0.00 | 37 | 1017.8 |
| 20260510183027 | 57 | 331 | 4.0 | 12.0 | 0.00 | 0.28 | 0.00 | 42 | 1017.7 |
| 20260510182525 | 57 | 312 | 7.0 | 20.0 | 0.00 | 0.28 | 0.00 | 37 | 1017.7 |
| 20260510182025 | 57 | 342 | 7.0 | 20.0 | 0.00 | 0.28 | 0.00 | 37 | 1017.5 |
| 20260510181525 | 57 | 339 | 5.0 | 13.0 | 0.00 | 0.28 | 0.00 | 39 | 1017.5 |
| 20260510181027 | 57 | 96 | 5.0 | 12.0 | 0.00 | 0.28 | 0.00 | 38 | 1017.6 |
| 20260510180524 | 58 | 32 | 6.0 | 12.0 | 0.00 | 0.28 | 0.00 | 41 | 1017.6 |
| 20260510180022 | 58 | 1 | 3.0 | 12.0 | 0.00 | 0.28 | 0.00 | 40 | 1017.4 |
| 20260510175524 | 57 | 320 | 5.0 | 11.0 | 0.00 | 0.28 | 0.00 | 37 | 1017.5 |
| 20260510175021 | 57 | 342 | 5.0 | 12.0 | 0.00 | 0.28 | 0.00 | 38 | 1017.5 |
| 20260510174521 | 57 | 322 | 6.0 | 21.0 | 0.00 | 0.28 | 0.00 | 37 | 1017.5 |
| 20260510174024 | 57 | 8 | 9.0 | 21.0 | 0.00 | 0.28 | 0.00 | 35 | 1017.4 |
| 20260510173524 | 57 | 20 | 9.0 | 16.0 | 0.00 | 0.28 | 0.00 | 34 | 1017.5 |
| 20260510173022 | 57 | 331 | 3.0 | 15.0 | 0.00 | 0.28 | 0.00 | 39 | 1017.5 |
| 20260510172521 | 57 | 343 | 6.0 | 16.0 | 0.00 | 0.28 | 0.00 | 39 | 1017.6 |
| 20260510172020 | 57 | 295 | 9.0 | 16.0 | 0.00 | 0.28 | 0.00 | 39 | 1017.5 |
| 20260510171521 | 57 | 16 | 6.0 | 17.0 | 0.00 | 0.28 | 0.00 | 42 | 1017.5 |
| 20260510171018 | 57 | 356 | 10.0 | 17.0 | 0.00 | 0.28 | 0.00 | 38 | 1017.6 |
| 20260510170517 | 58 | 338 | 4.0 | 11.0 | 0.00 | 0.28 | 0.00 | 42 | 1017.4 |
| 20260510170017 | 57 | 306 | 6.0 | 15.0 | 0.00 | 0.28 | 0.00 | 42 | 1017.4 |
| 20260510165515 | 57 | 306 | 3.0 | 18.0 | 0.00 | 0.28 | 0.00 | 43 | 1017.3 |
| 20260510165014 | 57 | 319 | 7.0 | 18.0 | 0.00 | 0.28 | 0.00 | 45 | 1017.2 |
| 20260510164515 | 57 | 330 | 7.0 | 10.0 | 0.00 | 0.28 | 0.00 | 44 | 1017.2 |
| 20260510164012 | 57 | 356 | 4.0 | 10.0 | 0.00 | 0.28 | 0.00 | 46 | 1017.2 |
| 20260510163511 | 56 | 309 | 3.0 | 12.0 | 0.00 | 0.28 | 0.00 | 49 | 1017.3 |
| 20260510163011 | 56 | 346 | 6.0 | 12.0 | 0.00 | 0.28 | 0.00 | 46 | 1017.2 |
| 20260510162511 | 56 | 345 | 4.0 | 10.0 | 0.00 | 0.28 | 0.00 | 49 | 1017.2 |
| 20260510162012 | 56 | 356 | 5.0 | 14.0 | 0.00 | 0.28 | 0.00 | 48 | 1017.1 |
| 20260510161511 | 56 | 23 | 8.0 | 14.0 | 0.00 | 0.28 | 0.00 | 50 | 1017.2 |
| 20260510161009 | 56 | 3 | 5.0 | 14.0 | 0.00 | 0.28 | 0.00 | 48 | 1017.1 |
| 20260510160507 | 56 | 356 | 4.0 | 12.0 | 0.00 | 0.28 | 0.00 | 50 | 1017.1 |
| 20260510160008 | 56 | 359 | 5.0 | 12.0 | 0.00 | 0.28 | 0.00 | 51 | 1017.1 |
| 20260510155504 | 56 | 6 | 7.0 | 12.0 | 0.00 | 0.28 | 0.00 | 53 | 1016.9 |
| 20260510155002 | 56 | 10 | 4.0 | 9.0 | 0.00 | 0.28 | 0.00 | 53 | 1016.8 |
| 20260510154502 | 56 | 4 | 3.0 | 10.0 | 0.00 | 0.28 | 0.00 | 54 | 1016.7 |
| 20260510154001 | 55 | 305 | 6.0 | 13.0 | 0.00 | 0.28 | 0.00 | 54 | 1016.8 |
| 20260510153603 | 55 | 345 | 7.0 | 13.0 | 0.00 | 0.28 | 0.00 | 51 | 1016.8 |
| 20260510153102 | 55 | 62 | 4.0 | 16.0 | 0.00 | 0.28 | 0.00 | 56 | 1016.7 |
| 20260510152558 | 55 | 348 | 5.0 | 16.0 | 0.00 | 0.28 | 0.00 | 53 | 1016.8 |
| 20260510152058 | 55 | 336 | 3.0 | 14.0 | 0.00 | 0.28 | 0.00 | 56 | 1016.7 |
| 20260510151556 | 55 | 301 | 3.0 | 14.0 | 0.00 | 0.28 | 0.00 | 56 | 1016.6 |
| 20260510151055 | 55 | 6 | 6.0 | 13.0 | 0.00 | 0.28 | 0.00 | 54 | 1016.6 |
| 20260510150555 | 54 | 74 | 5.0 | 15.0 | 0.00 | 0.28 | 0.00 | 54 | 1016.5 |
| 20260510150103 | 54 | 356 | 5.0 | 15.0 | 0.00 | 0.28 | 0.00 | 53 | 1016.6 |
| 20260510145553 | 54 | 311 | 4.0 | 12.0 | 0.00 | 0.28 | 0.00 | 54 | 1016.4 |
| 20260510145054 | 53 | 36 | 5.0 | 12.0 | 0.00 | 0.28 | 0.00 | 53 | 1016.3 |
| 20260510144551 | 53 | 22 | 3.0 | 17.0 | 0.00 | 0.28 | 0.00 | 55 | 1016.2 |
| 20260510144054 | 53 | 341 | 9.0 | 17.0 | 0.00 | 0.28 | 0.00 | 52 | 1016.3 |
| 20260510143550 | 52 | 4 | 7.0 | 16.0 | 0.00 | 0.28 | 0.00 | 54 | 1016.3 |
| 20260510143056 | 52 | 359 | 6.0 | 20.0 | 0.00 | 0.28 | 0.00 | 52 | 1016.3 |
| 20260510142547 | 52 | 341 | 11.0 | 20.0 | 0.00 | 0.28 | 0.00 | 51 | 1016.2 |
| 20260510142047 | 52 | 329 | 8.0 | 19.0 | 0.00 | 0.28 | 0.00 | 54 | 1016.1 |
| 20260510141546 | 52 | 325 | 5.0 | 14.0 | 0.00 | 0.28 | 0.00 | 57 | 1016.2 |
| 20260510141048 | 52 | 29 | 6.0 | 15.0 | 0.00 | 0.28 | 0.00 | 56 | 1016.2 |
| 20260510140543 | 51 | 16 | 10.0 | 15.0 | 0.00 | 0.28 | 0.00 | 55 | 1016.2 |
| 20260510140043 | 51 | 339 | 7.0 | 17.0 | 0.00 | 0.28 | 0.00 | 56 | 1016.2 |
| 20260510135546 | 51 | 346 | 10.0 | 17.0 | 0.00 | 0.28 | 0.00 | 57 | 1016.3 |
| 20260510135041 | 51 | 15 | 7.0 | 12.0 | 0.00 | 0.28 | 0.00 | 59 | 1016.2 |
| 20260510134547 | 50 | 27 | 5.0 | 14.0 | 0.00 | 0.28 | 0.00 | 60 | 1016.2 |
| 20260510134042 | 50 | 46 | 6.0 | 16.0 | 0.00 | 0.28 | 0.00 | 60 | 1016.2 |
| 20260510133543 | 50 | 53 | 5.0 | 16.0 | 0.00 | 0.28 | 0.00 | 61 | 1016.0 |
| 20260510133039 | 50 | 25 | 6.0 | 15.0 | 0.00 | 0.28 | 0.00 | 61 | 1016.0 |
| 20260510132537 | 49 | 23 | 7.0 | 20.0 | 0.00 | 0.28 | 0.00 | 60 | 1015.9 |
| 20260510132036 | 49 | 359 | 10.0 | 20.0 | 0.00 | 0.28 | 0.00 | 60 | 1015.7 |
| 20260510131535 | 49 | 13 | 9.0 | 20.0 | 0.00 | 0.28 | 0.00 | 58 | 1015.7 |
| 20260510131034 | 49 | 42 | 6.0 | 17.0 | 0.00 | 0.28 | 0.00 | 60 | 1015.5 |
| 20260510130502 | 49 | 317 | 5.0 | 15.0 | 0.00 | 0.28 | 0.00 | 62 | 1015.3 |
| 20260510130002 | 48 | 322 | 6.0 | 12.0 | 0.00 | 0.28 | 0.00 | 65 | 1015.2 |
| 20260510125500 | 48 | 22 | 5.0 | 11.0 | 0.00 | 0.28 | 0.00 | 65 | 1015.2 |
| 20260510125059 | 48 | 20 | 6.0 | 12.0 | 0.00 | 0.28 | 0.00 | 66 | 1015.1 |
| 20260510124559 | 48 | 326 | 4.0 | 12.0 | 0.00 | 0.28 | 0.00 | 67 | 1015.0 |
| 20260510124059 | 48 | 359 | 6.0 | 10.0 | 0.00 | 0.28 | 0.00 | 68 | 1015.0 |
| 20260510123600 | 47 | 15 | 3.0 | 8.0 | 0.00 | 0.28 | 0.00 | 69 | 1014.9 |
| 20260510123059 | 47 | 3 | 4.0 | 9.0 | 0.00 | 0.28 | 0.00 | 69 | 1015.0 |
| 20260510122556 | 47 | 35 | 5.0 | 9.0 | 0.00 | 0.28 | 0.00 | 69 | 1015.0 |
| 20260510122054 | 47 | 18 | 6.0 | 13.0 | 0.00 | 0.28 | 0.00 | 69 | 1014.9 |
| 20260510121553 | 47 | 359 | 7.0 | 13.0 | 0.00 | 0.28 | 0.00 | 69 | 1014.8 |
| 20260510121056 | 47 | 359 | 6.0 | 12.0 | 0.00 | 0.28 | 0.00 | 70 | 1014.7 |
| 20260510120551 | 47 | 356 | 5.0 | 11.0 | 0.00 | 0.28 | 0.00 | 70 | 1014.5 |
| 20260510120051 | 47 | 32 | 6.0 | 11.0 | 0.00 | 0.28 | 0.00 | 71 | 1014.4 |
| 20260510115549 | 47 | 8 | 5.0 | 12.0 | 0.00 | 0.28 | 0.00 | 71 | 1014.3 |
| 20260510115048 | 47 | 8 | 7.0 | 16.0 | 0.00 | 0.28 | 0.00 | 71 | 1014.1 |
| 20260510114547 | 47 | 3 | 8.0 | 16.0 | 0.00 | 0.28 | 0.00 | 72 | 1014.0 |
| 20260510114047 | 47 | 34 | 7.0 | 15.0 | 0.00 | 0.28 | 0.00 | 73 | 1013.8 |
| 20260510113545 | 47 | 36 | 7.0 | 15.0 | 0.00 | 0.28 | 0.00 | 74 | 1013.7 |
| 20260510113046 | 47 | 349 | 6.0 | 14.0 | 0.00 | 0.28 | 0.00 | 75 | 1013.6 |
| 20260510112544 | 47 | 20 | 7.0 | 12.0 | 0.00 | 0.28 | 0.00 | 75 | 1013.6 |
| 20260510112046 | 47 | 32 | 6.0 | 12.0 | 0.00 | 0.28 | 0.00 | 75 | 1013.4 |
| 20260510111552 | 47 | 16 | 7.0 | 12.0 | 0.00 | 0.28 | 0.00 | 75 | 1013.3 |
| 20260510111041 | 47 | 335 | 6.0 | 12.0 | 0.00 | 0.28 | 0.00 | 75 | 1013.1 |
| 20260510110540 | 47 | 3 | 5.0 | 12.0 | 0.00 | 0.28 | 0.00 | 76 | 1013.3 |
| 20260510110043 | 47 | 355 | 6.0 | 11.0 | 0.00 | 0.28 | 0.00 | 76 | 1013.1 |
| 20260510105538 | 47 | 345 | 5.0 | 11.0 | 0.00 | 0.28 | 0.00 | 76 | 1012.9 |
| 20260510105037 | 47 | 329 | 4.0 | 11.0 | 0.00 | 0.28 | 0.00 | 76 | 1012.7 |
| 20260510104545 | 47 | 356 | 4.0 | 11.0 | 0.00 | 0.28 | 0.00 | 76 | 1012.5 |
| 20260510104038 | 47 | 346 | 5.0 | 8.0 | 0.00 | 0.28 | 0.00 | 77 | 1012.5 |
| 20260510103533 | 47 | 15 | 5.0 | 11.0 | 0.00 | 0.28 | 0.00 | 77 | 1012.4 |
| 20260510103033 | 47 | 8 | 4.0 | 11.0 | 0.00 | 0.28 | 0.00 | 77 | 1012.4 |
| 20260510102532 | 47 | 337 | 4.0 | 10.0 | 0.00 | 0.28 | 0.00 | 77 | 1012.2 |
| 20260510102029 | 47 | 39 | 5.0 | 10.0 | 0.00 | 0.28 | 0.00 | 78 | 1012.1 |
| 20260510101528 | 47 | 34 | 5.0 | 10.0 | 0.00 | 0.28 | 0.00 | 78 | 1012.0 |
| 20260510101027 | 48 | 41 | 5.0 | 10.0 | 0.00 | 0.28 | 0.00 | 78 | 1012.0 |
| 20260510100527 | 48 | 32 | 5.0 | 10.0 | 0.00 | 0.28 | 0.00 | 78 | 1012.0 |
| 20260510100025 | 48 | 20 | 5.0 | 10.0 | 0.00 | 0.28 | 0.00 | 78 | 1012.0 |
| 20260510095525 | 48 | 20 | 3.0 | 8.0 | 0.00 | 0.28 | 0.00 | 78 | 1011.8 |
| 20260510095024 | 48 | 346 | 3.0 | 7.0 | 0.00 | 0.28 | 0.00 | 77 | 1011.8 |
| 20260510094525 | 48 | 23 | 3.0 | 8.0 | 0.00 | 0.28 | 0.00 | 77 | 1011.9 |
| 20260510094022 | 49 | 18 | 3.0 | 8.0 | 0.00 | 0.28 | 0.00 | 76 | 1011.8 |
| 20260510093523 | 49 | 337 | 2.0 | 5.0 | 0.00 | 0.28 | 0.00 | 76 | 1011.6 |
| 20260510093023 | 49 | 356 | 3.0 | 6.0 | 0.00 | 0.28 | 0.00 | 76 | 1011.5 |
| 20260510092521 | 49 | 1 | 3.0 | 7.0 | 0.00 | 0.28 | 0.00 | 75 | 1011.5 |
| 20260510092019 | 49 | 8 | 3.0 | 7.0 | 0.00 | 0.28 | 0.00 | 75 | 1011.3 |
| 20260510091518 | 49 | 345 | 3.0 | 9.0 | 0.00 | 0.28 | 0.00 | 75 | 1011.1 |
| 20260510091018 | 49 | 15 | 5.0 | 11.0 | 0.00 | 0.28 | 0.00 | 75 | 1011.2 |
| 20260510090518 | 49 | 340 | 4.0 | 11.0 | 0.00 | 0.28 | 0.00 | 75 | 1011.1 |
| 20260510090019 | 48 | 334 | 4.0 | 9.0 | 0.00 | 0.28 | 0.00 | 74 | 1010.9 |
| 20260510085516 | 48 | 42 | 3.0 | 7.0 | 0.00 | 0.28 | 0.00 | 75 | 1010.8 |
| 20260510085017 | 48 | 356 | 3.0 | 7.0 | 0.00 | 0.28 | 0.00 | 75 | 1010.8 |
| 20260510084514 | 48 | 41 | 3.0 | 5.0 | 0.00 | 0.28 | 0.00 | 75 | 1010.7 |
| 20260510084013 | 48 | 32 | 2.0 | 6.0 | 0.00 | 0.28 | 0.00 | 75 | 1010.8 |
| 20260510083517 | 48 | 51 | 2.0 | 6.0 | 0.00 | 0.28 | 0.00 | 74 | 1010.7 |
| 20260510083012 | 49 | 339 | 1.0 | 4.0 | 0.00 | 0.28 | 0.00 | 74 | 1010.4 |
| 20260510082511 | 49 | 15 | 0.0 | 4.0 | 0.00 | 0.28 | 0.00 | 74 | 1010.5 |
| 20260510082010 | 49 | 344 | 2.0 | 4.0 | 0.00 | 0.28 | 0.00 | 74 | 1010.5 |
| 20260510081527 | 49 | 322 | 1.0 | 3.0 | 0.00 | 0.28 | 0.00 | 73 | 1010.5 |
| 20260510081007 | 49 | 41 | 0.0 | 2.0 | 0.00 | 0.28 | 0.00 | 73 | 1010.3 |
| 20260510080507 | 49 | 74 | 0.0 | 3.0 | 0.00 | 0.28 | 0.00 | 73 | 1010.2 |
| 20260510080005 | 49 | 27 | 0.0 | 3.0 | 0.00 | 0.28 | 0.00 | 73 | 1010.1 |
| 20260510075504 | 49 | 84 | 0.0 | 3.0 | 0.00 | 0.28 | 0.00 | 73 | 1009.9 |
| 20260510075003 | 49 | 51 | 1.0 | 5.0 | 0.00 | 0.28 | 0.00 | 73 | 1009.9 |
| 20260510074503 | 49 | 23 | 2.0 | 6.0 | 0.00 | 0.28 | 0.00 | 73 | 1009.9 |
| 20260510074001 | 50 | 41 | 2.0 | 6.0 | 0.00 | 0.28 | 0.00 | 73 | 1009.7 |
| 20260510073501 | 50 | 356 | 2.0 | 7.0 | 0.00 | 0.28 | 0.00 | 73 | 1009.7 |
| 20260510073106 | 50 | 356 | 3.0 | 7.0 | 0.00 | 0.28 | 0.00 | 73 | 1009.7 |
| 20260510072600 | 50 | 356 | 3.0 | 7.0 | 0.00 | 0.28 | 0.00 | 74 | 1009.7 |
| 20260510072058 | 50 | 18 | 1.0 | 6.0 | 0.00 | 0.28 | 0.00 | 73 | 1009.5 |
| 20260510071559 | 50 | 11 | 3.0 | 6.0 | 0.00 | 0.28 | 0.00 | 73 | 1009.5 |
| 20260510071056 | 50 | 347 | 4.0 | 7.0 | 0.00 | 0.28 | 0.00 | 73 | 1009.5 |
| 20260510070656 | 50 | 18 | 4.0 | 9.0 | 0.00 | 0.28 | 0.00 | 73 | 1009.4 |
| 20260510070054 | 50 | 340 | 4.0 | 10.0 | 0.00 | 0.28 | 0.00 | 74 | 1009.3 |
| 20260510065555 | 50 | 25 | 5.0 | 10.0 | 0.00 | 0.28 | 0.00 | 74 | 1009.1 |
| 20260510065054 | 50 | 356 | 4.0 | 8.0 | 0.00 | 0.28 | 0.00 | 75 | 1009.2 |
| 20260510064559 | 50 | 339 | 4.0 | 8.0 | 0.00 | 0.28 | 0.00 | 75 | 1009.1 |
| 20260510064054 | 50 | 10 | 3.0 | 12.0 | 0.00 | 0.28 | 0.00 | 76 | 1009.1 |
| 20260510063552 | 50 | 25 | 4.0 | 12.0 | 0.00 | 0.28 | 0.00 | 76 | 1009.1 |
| 20260510063052 | 50 | 18 | 5.0 | 8.0 | 0.00 | 0.28 | 0.00 | 77 | 1009.1 |
| 20260510062551 | 51 | 15 | 3.0 | 8.0 | 0.00 | 0.28 | 0.00 | 78 | 1009.1 |
| 20260510062054 | 51 | 8 | 3.0 | 11.0 | 0.00 | 0.28 | 0.00 | 78 | 1009.2 |
| 20260510061549 | 51 | 322 | 5.0 | 12.0 | 0.00 | 0.28 | 0.00 | 79 | 1009.2 |
| 20260510061046 | 51 | 3 | 4.0 | 13.0 | 0.00 | 0.28 | 0.00 | 79 | 1009.2 |
| 20260510060547 | 51 | 356 | 7.0 | 13.0 | 0.00 | 0.28 | 0.00 | 79 | 1009.2 |
| 20260510060048 | 52 | 4 | 6.0 | 13.0 | 0.00 | 0.28 | 0.00 | 79 | 1009.1 |
| 20260510055542 | 52 | 25 | 7.0 | 14.0 | 0.00 | 0.28 | 0.00 | 79 | 1009.0 |
| 20260510055041 | 53 | 6 | 8.0 | 18.0 | 0.00 | 0.28 | 0.00 | 78 | 1008.9 |
| 20260510054540 | 54 | 340 | 6.0 | 18.0 | 0.00 | 0.28 | 0.00 | 78 | 1008.7 |
| 20260510054038 | 54 | 4 | 10.0 | 15.0 | 0.00 | 0.28 | 0.00 | 79 | 1008.7 |
| 20260510053536 | 55 | 356 | 6.0 | 14.0 | 0.00 | 0.28 | 0.00 | 79 | 1008.6 |
| 20260510053042 | 56 | 39 | 8.0 | 14.0 | 0.00 | 0.28 | 0.00 | 79 | 1008.6 |
| 20260510052535 | 56 | 9 | 4.0 | 9.0 | 0.00 | 0.28 | 0.00 | 79 | 1008.5 |
| 20260510052034 | 56 | 335 | 0.0 | 9.0 | 0.00 | 0.28 | 0.00 | 79 | 1008.5 |
| 20260510051539 | 56 | 218 | 2.0 | 11.0 | 0.00 | 0.28 | 0.00 | 79 | 1008.3 |
| 20260510051034 | 56 | 346 | 3.0 | 11.0 | 0.00 | 0.28 | 0.00 | 79 | 1008.3 |
| 20260510050531 | 56 | 333 | 3.0 | 9.0 | 0.00 | 0.28 | 0.00 | 79 | 1008.3 |
| 20260510050039 | 56 | 319 | 3.0 | 11.0 | 0.00 | 0.28 | 0.00 | 79 | 1007.8 |
| 20260510045531 | 56 | 245 | 6.0 | 11.0 | 0.00 | 0.30 | 0.00 | 79 | 1007.9 |
| 20260510045029 | 56 | 290 | 5.0 | 14.0 | 0.00 | 0.30 | 0.00 | 78 | 1007.5 |
| 20260510044543 | 56 | 197 | 6.0 | 14.0 | 0.00 | 0.30 | 0.00 | 78 | 1007.0 |
| 20260510044026 | 56 | 182 | 5.0 | 14.0 | 0.00 | 0.30 | 0.00 | 78 | 1006.8 |
| 20260510043525 | 56 | 201 | 7.0 | 15.0 | 0.00 | 0.30 | 0.00 | 79 | 1006.7 |
| 20260510043024 | 56 | 224 | 9.0 | 15.0 | 0.00 | 0.30 | 0.00 | 79 | 1006.5 |
| 20260510042523 | 56 | 199 | 6.0 | 13.0 | 0.00 | 0.30 | 0.00 | 79 | 1006.5 |
| 20260510042025 | 56 | 212 | 4.0 | 10.0 | 0.00 | 0.30 | 0.00 | 79 | 1006.5 |
| 20260510041521 | 56 | 213 | 4.0 | 10.0 | 0.00 | 0.30 | 0.00 | 80 | 1006.5 |
| 20260510041020 | 56 | 218 | 3.0 | 8.0 | 0.00 | 0.30 | 0.00 | 80 | 1006.4 |
| 20260510040527 | 56 | 205 | 4.0 | 12.0 | 0.00 | 0.30 | 0.00 | 80 | 1006.4 |
| 20260510040033 | 56 | 180 | 5.0 | 13.0 | 0.00 | 0.30 | 0.00 | 80 | 1006.4 |
| 20260510035519 | 56 | 190 | 6.0 | 15.0 | 0.00 | 0.31 | 0.30 | 80 | 1006.4 |
| 20260510035021 | 56 | 245 | 6.0 | 19.0 | 0.00 | 0.31 | 0.30 | 81 | 1006.5 |
| 20260510034518 | 56 | 204 | 9.0 | 19.0 | 0.00 | 0.31 | 0.30 | 81 | 1006.5 |
| 20260510034018 | 56 | 241 | 6.0 | 15.0 | 0.00 | 0.31 | 0.30 | 81 | 1006.6 |
| 20260510033517 | 56 | 196 | 9.0 | 20.0 | 0.00 | 0.31 | 0.30 | 82 | 1006.6 |
| 20260510033018 | 56 | 210 | 7.0 | 21.0 | 0.00 | 0.31 | 0.30 | 82 | 1006.8 |
| 20260510032517 | 56 | 218 | 12.0 | 21.0 | 0.00 | 0.31 | 0.30 | 82 | 1006.7 |
| 20260510032023 | 55 | 231 | 10.0 | 19.0 | 0.00 | 0.31 | 0.30 | 83 | 1006.7 |
| 20260510031517 | 55 | 229 | 11.0 | 19.0 | 0.00 | 0.31 | 0.30 | 83 | 1006.7 |
| 20260510031017 | 55 | 224 | 9.0 | 18.0 | 0.00 | 0.31 | 0.30 | 84 | 1006.6 |
| 20260510030524 | 55 | 211 | 8.0 | 19.0 | 0.00 | 0.31 | 0.30 | 84 | 1006.6 |
| 20260510030017 | 55 | 236 | 5.0 | 19.0 | 0.00 | 0.31 | 0.30 | 84 | 1006.5 |
| 20260510025517 | 55 | 200 | 9.0 | 15.0 | 0.00 | 0.31 | 0.30 | 84 | 1006.5 |
| 20260510025018 | 55 | 205 | 5.0 | 8.0 | 0.00 | 0.31 | 0.30 | 85 | 1006.5 |
| 20260510024516 | 55 | 214 | 3.0 | 13.0 | 0.00 | 0.31 | 0.30 | 85 | 1006.5 |
| 20260510024015 | 55 | 189 | 4.0 | 21.0 | 0.00 | 0.31 | 0.30 | 85 | 1006.5 |
| 20260510023516 | 55 | 224 | 7.0 | 25.0 | 0.00 | 0.31 | 0.30 | 85 | 1006.6 |
| 20260510023015 | 55 | 196 | 13.0 | 25.0 | 0.00 | 0.31 | 0.30 | 86 | 1006.9 |
| 20260510022515 | 54 | 217 | 13.0 | 24.0 | 0.00 | 0.31 | 0.30 | 86 | 1007.0 |
| 20260510022015 | 54 | 205 | 5.0 | 14.0 | 0.00 | 0.31 | 0.30 | 86 | 1007.0 |
| 20260510021515 | 54 | 208 | 3.0 | 7.0 | 0.00 | 0.31 | 0.30 | 86 | 1006.4 |
| 20260510021014 | 54 | 271 | 3.0 | 8.0 | 0.00 | 0.31 | 0.30 | 86 | 1006.3 |
| 20260510020514 | 54 | 194 | 2.0 | 8.0 | 0.00 | 0.31 | 0.30 | 86 | 1006.3 |
| 20260510020020 | 54 | 173 | 2.0 | 6.0 | 0.00 | 0.31 | 0.30 | 86 | 1006.2 |
| 20260510015515 | 54 | 173 | 1.0 | 7.0 | 0.00 | 0.31 | 0.30 | 86 | 1006.1 |
| 20260510015021 | 54 | 181 | 3.0 | 10.0 | 0.00 | 0.31 | 0.30 | 86 | 1006.2 |
| 20260510014514 | 54 | 218 | 4.0 | 10.0 | 0.00 | 0.31 | 0.30 | 86 | 1006.2 |
| 20260510014013 | 54 | 203 | 4.0 | 9.0 | 0.00 | 0.31 | 0.30 | 85 | 1006.1 |
| 20260510013513 | 54 | 130 | 2.0 | 12.0 | 0.00 | 0.31 | 0.30 | 85 | 1006.0 |
| 20260510013013 | 54 | 218 | 5.0 | 12.0 | 0.00 | 0.31 | 0.30 | 85 | 1006.2 |
| 20260510012516 | 54 | 198 | 5.0 | 10.0 | 0.00 | 0.31 | 0.30 | 85 | 1006.1 |
| 20260510012013 | 54 | 259 | 3.0 | 9.0 | 0.00 | 0.31 | 0.30 | 85 | 1006.0 |
| 20260510011516 | 54 | 193 | 4.0 | 9.0 | 0.00 | 0.31 | 0.30 | 85 | 1006.0 |
| 20260510011011 | 54 | 198 | 3.0 | 9.0 | 0.00 | 0.31 | 0.30 | 85 | 1005.9 |
| 20260510010511 | 54 | 197 | 3.0 | 10.0 | 0.00 | 0.31 | 0.30 | 85 | 1005.9 |
| 20260510010011 | 54 | 212 | 5.0 | 10.0 | 0.00 | 0.31 | 0.30 | 85 | 1005.8 |
| 20260510005511 | 55 | 212 | 4.0 | 9.0 | 0.00 | 0.35 | 0.30 | 85 | 1005.8 |
| 20260510005011 | 55 | 239 | 4.0 | 11.0 | 0.00 | 0.35 | 0.30 | 85 | 1005.7 |
| 20260510004511 | 55 | 227 | 5.0 | 13.0 | 0.00 | 0.35 | 0.30 | 85 | 1005.7 |
| 20260510004013 | 55 | 279 | 6.0 | 13.0 | 0.00 | 0.35 | 0.30 | 85 | 1005.7 |
| 20260510003509 | 55 | 217 | 6.0 | 13.0 | 0.00 | 0.35 | 0.30 | 85 | 1005.8 |
| 20260510003010 | 55 | 218 | 6.0 | 13.0 | 0.01 | 0.35 | 0.30 | 85 | 1005.8 |
| 20260510002510 | 55 | 241 | 7.0 | 12.0 | 0.02 | 0.35 | 0.30 | 85 | 1005.8 |
| 20260510002008 | 55 | 197 | 6.0 | 15.0 | 0.02 | 0.35 | 0.30 | 85 | 1005.8 |
| 20260510001607 | 55 | 207 | 6.0 | 15.0 | 0.03 | 0.35 | 0.30 | 85 | 1005.7 |
| 20260510001009 | 56 | 220 | 7.0 | 15.0 | 0.05 | 0.35 | 0.30 | 85 | 1005.7 |
| 20260510000506 | 56 | 269 | 6.0 | 15.0 | 0.07 | 0.35 | 0.30 | 85 | 1005.7 |
| 20260510000014 | 56 | 188 | 9.0 | 15.0 | 0.07 | 0.35 | 0.30 | 85 | 1005.7 |
| 20260509235504 | 55 | 210 | 6.0 | 14.0 | 0.12 | 0.41 | 0.30 | 84 | 1005.7 |
| 20260509235004 | 55 | 293 | 6.0 | 13.0 | 0.17 | 0.41 | 0.30 | 84 | 1005.4 |